TimeCST,TemperatureF,Dew PointF,Humidity,Sea Level PressureIn,VisibilityMPH,Wind Direction,Wind SpeedMPH,Gust SpeedMPH,PrecipitationIn,Events,Conditions,WindDirDegrees,DateUTC
12:30 AM,24.8,15.8,69,29.90,10.0,WNW,26.5,40.3,N/A,,Scattered Clouds,290,2013-02-19 06:30:00
12:54 AM,25.0,14.0,63,29.92,10.0,West,16.1,-,N/A,,Partly Cloudy,280,2013-02-19 06:54:00
1:16 AM,24.8,15.8,69,29.91,10.0,WNW,18.4,-,N/A,,Mostly Cloudy,290,2013-02-19 07:16:00
1:54 AM,24.1,14.0,65,29.94,10.0,WNW,21.9,29.9,N/A,,Mostly Cloudy,290,2013-02-19 07:54:00
2:39 AM,24.8,14.0,64,29.93,10.0,West,20.7,26.5,N/A,,Scattered Clouds,280,2013-02-19 08:39:00
2:54 AM,21.9,12.0,66,29.95,10.0,West,25.3,33.4,N/A,,Partly Cloudy,280,2013-02-19 08:54:00
3:54 AM,21.0,12.0,68,29.96,10.0,WNW,19.6,31.1,N/A,,Partly Cloudy,290,2013-02-19 09:54:00
4:54 AM,19.9,10.9,68,29.99,10.0,WNW,21.9,32.2,N/A,,Scattered Clouds,290,2013-02-19 10:54:00
5:09 AM,19.4,12.2,74,29.97,10.0,WNW,17.3,27.6,N/A,,Mostly Cloudy,300,2013-02-19 11:09:00
5:54 AM,19.9,10.0,65,30.02,10.0,West,20.7,29.9,N/A,,Overcast,280,2013-02-19 11:54:00
6:54 AM,18.0,9.0,68,30.06,10.0,WNW,23.0,33.4,N/A,,Scattered Clouds,300,2013-02-19 12:54:00
7:03 AM,17.6,8.6,68,30.03,10.0,WNW,18.4,29.9,N/A,,Mostly Cloudy,300,2013-02-19 13:03:00
7:54 AM,18.0,8.1,65,30.10,10.0,WNW,25.3,34.5,N/A,,Overcast,300,2013-02-19 13:54:00
8:54 AM,18.0,8.1,65,30.12,10.0,WNW,23.0,38.0,N/A,,Overcast,300,2013-02-19 14:54:00
9:54 AM,19.0,9.0,65,30.14,10.0,WNW,23.0,29.9,N/A,,Overcast,300,2013-02-19 15:54:00
10:54 AM,19.9,9.0,62,30.17,10.0,WNW,20.7,27.6,N/A,,Overcast,290,2013-02-19 16:54:00
12:54 PM,21.9,10.0,60,30.18,10.0,West,24.2,34.5,N/A,,Overcast,280,2013-02-19 18:54:00
1:30 PM,23.0,10.4,59,30.16,10.0,West,23.0,34.5,N/A,,Mostly Cloudy,280,2013-02-19 19:30:00
1:54 PM,23.0,10.0,58,30.18,10.0,WNW,25.3,33.4,N/A,,Mostly Cloudy,290,2013-02-19 19:54:00
2:54 PM,25.0,10.0,53,30.20,10.0,WNW,21.9,35.7,N/A,,Partly Cloudy,290,2013-02-19 20:54:00
3:54 PM,25.0,9.0,51,30.22,10.0,West,20.7,29.9,N/A,,Partly Cloudy,280,2013-02-19 21:54:00
4:54 PM,26.1,10.0,51,30.23,10.0,WNW,17.3,24.2,N/A,,Clear,290,2013-02-19 22:54:00
6:54 PM,23.0,10.4,59,30.22,10.0,WNW,6.9,-,N/A,,Clear,290,2013-02-20 00:54:00
7:54 PM,21.9,10.0,60,30.27,10.0,NW,9.2,-,N/A,,Clear,320,2013-02-20 01:54:00
8:54 PM,21.0,9.0,60,30.28,10.0,NNW,9.2,-,N/A,,Clear,330,2013-02-20 02:54:00
9:54 PM,19.0,9.0,65,30.30,10.0,WNW,6.9,-,N/A,,Clear,300,2013-02-20 03:54:00
10:54 PM,19.0,8.1,62,30.32,10.0,WNW,9.2,-,N/A,,Clear,300,2013-02-20 04:54:00
11:54 PM,18.0,8.1,65,30.32,10.0,NW,11.5,-,N/A,,Clear,310,2013-02-20 05:54:00